Wind_Speed
13 12 12 10 9 9 9 10 8 10 10 10 11 12 13 12 10 8 7 5 5 3 3 3 2 2 1 1 1 2 2 2 3 4 4 4 5 4 4 4 3 3 3 3 2 2 2 1 1
13 13 12 10 8 8 9 9 9 11 13 14 15 15 14 13 10 9 8 6 5 4 4 4 4 3 3 2 1 2 2 2 3 4 4 5 5 5 5 5 5 4 4 4 4 3 3 2 2
13 13 12 10 9 8 8 9 9 12 14 17 19 19 16 14 10 10 9 6 6 5 6 6 5 5 4 4 3 2 2 3 4 4 5 5 5 5 6 6 6 5 5 5 5 4 4 4 3
14 13 12 10 8 8 8 9 10 14 17 20 22 21 18 15 10 9 8 7 6 7 7 7 7 6 5 5 4 4 3 4 4 5 5 6 6 6 7 6 6 6 7 7 6 6 5 5 4
14 13 11 9 9 10 9 9 12 16 20 23 23 22 19 16 12 10 9 8 8 8 8 8 8 8 7 6 6 5 5 4 5 5 6 6 7 7 7 7 7 7 7 7 7 6 6 5 5
14 12 11 10 11 11 11 10 14 18 21 25 24 22 20 17 13 11 9 9 9 8 9 9 9 9 8 7 7 6 5 5 6 6 7 7 7 8 8 7 7 7 7 7 7 6 6 6 6
13 12 10 10 12 12 11 12 16 21 25 25 24 24 21 18 15 12 11 10 10 9 9 10 10 10 9 9 7 7 6 6 6 7 7 8 8 8 8 8 7 7 7 7 7 7 7 7 6
13 11 11 11 12 12 12 12 16 21 24 25 26 24 21 19 17 15 11 11 11 10 11 11 10 10 10 9 8 7 7 7 7 8 8 8 9 9 8 8 8 8 8 8 8 8 8 8 8
13 11 11 13 13 13 14 14 18 22 24 26 26 24 21 19 18 15 13 12 12 12 12 13 11 11 10 10 9 8 8 8 8 8 9 10 9 9 9 9 9 8 9 9 9 9 9 9 9
12 11 12 13 14 15 15 17 19 22 24 25 24 22 21 20 18 16 16 15 13 12 13 14 13 11 11 11 10 10 9 9 9 9 10 10 10 9 8 8 8 8 8 9 9 9 9 9 9
13 12 13 14 14 14 15 16 19 22 24 23 22 22 21 20 18 17 17 15 14 13 13 14 13 12 12 12 11 10 10 9 9 8 9 10 10 9 8 8 8 7 7 7 8 8 8 9 8
13 13 13 12 13 13 14 16 18 20 21 21 23 22 21 19 19 18 17 16 16 15 14 14 15 14 13 12 11 10 10 9 9 8 8 8 8 8 8 7 7 6 6 6 6 6 7 7 7
13 13 12 11 11 11 13 14 16 17 18 20 21 21 21 20 19 17 16 17 17 17 16 14 15 15 14 13 12 10 9 8 8 8 7 7 7 6 6 6 5 5 5 5 6 6 6 7 7
12 12 10 10 10 11 13 14 14 16 18 18 19 18 18 17 17 15 14 14 17 17 17 15 14 13 13 13 12 10 9 8 7 7 6 6 5 4 4 4 4 4 4 4 4 5 6 6 7
11 9 8 8 8 10 13 13 13 16 17 18 19 17 17 17 17 16 15 14 15 16 16 15 14 14 13 12 12 11 9 8 7 6 5 5 4 4 4 3 3 3 3 3 4 4 5 5 6
8 8 7 7 8 10 11 11 12 15 16 17 17 16 15 15 16 15 15 15 14 15 16 16 15 14 12 11 10 11 10 8 7 6 5 5 5 4 3 3 3 3 3 3 3 4 4 5 5
7 6 6 6 9 11 12 12 12 14 15 16 16 17 16 14 13 11 11 11 13 14 16 17 16 14 12 11 10 9 10 9 7 7 5 5 5 4 3 2 2 2 2 2 2 3 3 4 5
8 8 7 8 11 12 13 13 12 13 14 15 16 16 16 13 11 10 8 10 13 13 15 17 16 14 12 12 11 10 9 9 8 7 6 5 5 4 3 2 1 1 1 0 1 1 2 3 4
10 9 8 9 12 13 13 13 14 14 15 15 16 16 15 13 10 8 7 10 11 13 15 16 15 14 12 11 11 10 10 9 8 7 6 5 4 4 3 2 3 2 2 2 2 2 2 3 3
11 10 9 11 13 14 14 14 15 15 16 15 15 14 14 12 9 8 7 8 10 14 15 14 15 14 13 11 11 11 11 10 9 8 6 6 5 4 4 4 4 3 3 3 3 3 3 3 3
10 9 10 13 15 16 17 16 16 16 16 15 14 13 11 9 8 6 5 6 8 13 14 14 14 14 13 13 13 13 11 10 9 8 7 6 5 5 5 5 4 4 4 3 3 4 4 4 4
11 9 12 15 17 18 19 19 15 15 15 14 12 10 8 7 6 4 4 6 8 13 14 15 14 14 14 14 14 13 12 11 10 8 7 6 6 6 6 5 4 4 3 3 3 4 4 5 5
12 12 14 17 18 19 19 19 15 14 14 12 10 8 7 5 4 3 4 6 9 12 14 15 14 14 15 15 14 14 13 12 10 9 8 7 7 6 5 5 4 3 2 2 3 4 5 6 6
14 14 17 18 19 19 18 19 14 13 12 10 7 6 5 3 2 4 5 7 9 12 13 14 14 14 15 15 15 14 13 12 10 9 8 7 7 7 6 5 3 2 1 2 3 4 5 7 7
16 17 18 18 18 18 18 17 13 12 9 7 5 4 4 2 2 5 7 7 10 12 13 14 14 15 15 15 14 14 13 12 10 9 9 8 8 7 6 4 3 1 1 2 4 5 6 7 8
18 18 19 19 18 18 17 16 10 9 8 6 4 3 3 3 4 5 6 8 10 12 13 14 14 15 15 15 15 14 13 12 10 10 9 8 8 7 5 4 3 2 3 4 5 6 7 8 9
20 20 20 20 20 19 17 14 10 8 8 6 3 2 3 4 4 5 8 9 10 12 14 14 14 14 15 15 15 14 13 12 11 10 9 8 8 7 5 4 4 4 5 6 7 8 9 9 10
23 23 23 22 21 20 17 12 10 8 6 4 3 2 4 5 5 5 8 9 10 11 13 14 14 14 15 14 14 13 12 12 11 10 9 9 8 7 6 5 6 6 7 8 8 9 10 11 11
26 25 24 24 23 21 18 13 10 8 6 5 4 4 5 5 5 5 7 9 10 11 12 13 13 13 13 13 13 12 12 12 11 11 10 9 9 7 7 7 7 8 8 9 10 11 11 12 13
26 25 24 25 25 22 20 14 11 8 7 6 6 6 6 7 7 7 7 9 11 12 11 11 11 11 12 12 13 13 12 12 12 11 10 10 10 9 8 8 9 9 10 10 11 12 13 13 14
Wind_Direction
325 321 317 317 321 313 300 301 311 322 330 335 329 318 312 311 302 293 289 278 271 262 244 239 249 262 274 313 350 344 336 323 317 315 317 321 319 318 315 315 318 315 321 324 319 323 322 332 3
321 317 312 311 313 305 303 309 318 324 321 326 323 317 308 302 295 289 284 277 264 257 243 232 238 245 250 264 302 327 318 310 304 307 311 313 313 312 308 306 305 301 303 309 312 309 311 311 304
316 312 308 306 301 295 304 304 307 313 316 316 316 315 306 301 295 290 280 267 252 246 239 235 236 240 245 251 267 289 302 296 294 297 303 304 304 304 303 300 297 297 296 296 299 300 303 303 298
310 307 303 299 291 287 296 306 311 308 305 310 314 310 300 298 290 283 274 258 249 243 244 240 238 240 242 249 257 265 275 285 287 288 293 297 296 297 297 295 291 290 289 288 289 292 291 290 291
304 302 297 288 280 280 284 299 297 298 301 305 307 307 301 299 286 280 272 252 243 241 240 241 239 241 241 246 252 254 262 274 279 283 289 293 293 294 293 291 290 288 285 285 284 285 283 281 285
299 297 289 278 271 274 285 294 292 295 295 300 302 302 299 299 291 277 267 250 242 239 239 241 241 240 241 245 248 246 256 265 274 281 284 289 292 291 289 288 287 284 283 283 284 283 280 280 280
293 290 279 263 254 265 279 288 291 292 295 299 301 300 299 295 291 285 269 251 240 237 237 237 239 239 241 242 240 245 258 261 268 277 281 286 291 290 285 283 282 280 278 278 279 279 280 279 277
285 282 268 256 253 267 278 284 284 285 289 295 299 298 297 295 292 288 264 246 238 238 234 231 237 238 238 237 236 242 254 258 263 272 279 285 289 287 281 277 277 278 274 274 276 275 277 275 274
280 270 261 256 256 268 275 277 281 287 292 295 299 298 293 291 288 281 265 256 247 243 237 231 235 235 232 232 236 245 257 258 263 271 280 283 286 285 277 273 274 278 275 275 275 268 273 275 272
275 265 261 261 264 268 274 277 281 286 294 299 301 296 292 290 286 276 270 256 247 241 232 228 233 233 233 235 241 250 260 260 263 272 277 278 282 285 277 270 272 275 275 276 277 270 272 275 273
270 262 262 262 266 271 277 279 283 287 294 297 298 296 293 288 280 271 268 254 244 238 229 230 231 235 234 236 241 250 255 257 259 267 273 276 281 282 278 269 268 273 274 277 278 274 274 279 277
262 259 260 261 266 273 280 285 289 292 293 297 298 294 292 286 279 270 269 254 242 235 233 233 228 232 231 233 241 247 250 256 258 263 273 278 278 279 275 272 268 273 273 276 278 278 279 277 275
258 255 255 260 264 274 283 287 295 301 304 305 304 297 291 288 285 280 273 258 241 231 231 230 230 234 230 232 236 241 248 254 257 261 267 269 269 261 257 261 258 268 270 276 282 280 286 280 274
263 261 259 261 264 277 284 292 300 307 310 310 309 302 296 293 288 284 272 254 237 229 230 226 227 232 233 232 235 237 239 249 250 252 257 261 250 244 249 255 260 263 268 274 280 283 281 277 276
265 263 262 267 274 284 290 297 306 308 313 313 310 306 298 298 292 287 273 259 239 227 223 219 224 228 228 229 232 229 231 239 234 235 248 241 233 232 236 243 248 253 266 270 278 287 288 283 281
257 257 262 279 289 295 296 304 313 311 313 316 315 313 302 299 295 284 280 259 235 225 216 217 223 224 224 222 227 227 225 225 222 226 227 221 218 217 229 229 233 245 260 276 285 289 291 292 289
240 248 263 296 309 311 305 307 314 318 314 316 314 315 310 302 293 281 268 247 229 221 211 212 218 220 219 218 223 220 220 216 214 217 215 210 202 207 219 228 239 244 260 281 292 297 298 298 296
234 248 268 303 308 310 310 313 313 317 315 316 317 317 315 310 300 279 258 249 230 226 214 208 212 216 219 216 216 213 214 211 208 210 208 205 201 206 213 213 185 165 181 311 348 338 330 324 316
231 245 275 298 299 305 311 311 308 310 309 314 314 310 311 305 296 284 263 255 231 214 205 206 207 211 212 211 210 206 200 196 196 197 192 196 197 198 191 166 148 136 119 79 45 25 360 342 329
235 252 275 293 293 296 298 301 308 310 310 310 313 307 306 302 294 291 269 247 224 209 205 205 200 201 200 202 200 195 191 190 190 183 178 176 175 175 165 149 141 128 105 85 66 50 35 20 358
238 258 275 285 285 288 291 291 300 304 306 306 308 307 306 295 288 283 259 232 208 193 191 192 194 196 195 192 188 187 184 183 180 176 173 168 171 166 152 142 135 124 103 81 59 45 34 21 8
231 247 268 276 280 284 287 290 291 298 298 300 302 304 306 301 295 284 250 219 192 180 180 183 186 189 185 182 183 181 177 179 179 178 175 168 163 157 150 144 134 125 103 72 45 30 19 10 2
240 247 261 270 276 279 286 293 292 295 297 295 300 302 296 290 284 266 234 201 182 176 177 178 181 184 182 181 180 180 180 179 179 178 178 175 168 163 158 151 142 129 101 52 27 17 10 0 353
237 248 258 264 273 278 284 289 286 290 295 290 290 298 291 264 258 219 197 183 172 170 175 177 180 181 178 179 181 181 180 179 178 177 178 176 170 169 168 169 164 150 80 20 10 4 359 353 348
231 246 256 261 268 278 281 285 285 286 284 282 282 276 277 244 217 196 189 180 173 174 175 175 177 177 175 177 180 181 182 182 180 181 181 178 177 179 182 186 188 197 312 331 336 341 342 341 339
234 243 254 263 270 274 277 282 282 286 274 271 277 266 240 205 179 175 171 171 173 176 175 174 174 175 177 179 180 182 183 182 184 182 183 184 186 189 197 205 218 251 291 307 316 323 326 329 331
241 245 250 258 267 273 280 283 274 281 271 269 259 209 190 181 175 171 166 166 166 172 174 172 174 176 177 178 181 182 184 184 185 186 190 192 196 201 209 222 240 264 286 298 307 313 318 321 324
241 245 248 251 262 269 278 283 279 277 269 252 220 189 172 176 182 183 173 169 169 169 172 174 177 181 182 183 186 188 187 188 191 196 200 199 205 213 226 241 254 271 285 297 304 310 314 316 318
239 244 248 250 256 266 273 279 284 279 264 250 222 199 172 170 178 186 185 179 174 173 176 177 179 183 187 189 191 192 196 201 203 204 207 209 218 229 241 252 263 274 284 292 299 306 310 311 312
242 247 250 252 256 260 266 273 274 268 273 248 216 198 188 179 176 181 181 182 180 180 183 184 185 188 193 198 202 205 208 210 208 211 214 222 231 240 250 260 268 276 283 290 296 301 306 308 309
Height
5908 5906 5905 5904 5903 5902 5899 5898 5897 5896 5895 5895 5895 5895 5895 5896 5896 5897 5894 5893 5893 5892 5893 5894 5894 5895 5895 5895 5896 5896 5896 5897 5897 5897 5897 5896 5896 5895 5895 5895 5894 5894 5893 5893 5893 5893 5893 5893 5893
5906 5905 5904 5903 5902 5900 5898 5896 5895 5894 5894 5893 5893 5894 5894 5893 5893 5893 5892 5891 5891 5891 5892 5893 5893 5894 5894 5895 5895 5895 5896 5896 5896 5896 5896 5896 5896 5895 5895 5894 5894 5894 5893 5893 5893 5893 5893 5893 5893
5905 5903 5903 5901 5899 5898 5897 5895 5893 5891 5890 5891 5892 5892 5892 5891 5890 5890 5890 5889 5889 5890 5891 5891 5892 5893 5894 5894 5895 5895 5895 5895 5896 5896 5896 5896 5895 5895 5895 5894 5894 5893 5893 5893 5892 5892 5892 5892 5892
5903 5902 5901 5900 5897 5896 5894 5892 5891 5890 5889 5890 5890 5891 5890 5889 5888 5887 5887 5887 5888 5888 5889 5890 5891 5892 5892 5893 5894 5894 5894 5895 5895 5895 5895 5895 5895 5895 5894 5894 5893 5893 5893 5892 5892 5892 5892 5892 5892
5901 5900 5899 5897 5896 5894 5891 5890 5889 5888 5888 5887 5888 5887 5887 5887 5885 5884 5884 5884 5885 5886 5887 5888 5889 5890 5891 5891 5892 5893 5893 5894 5894 5894 5894 5894 5894 5894 5893 5893 5892 5892 5892 5892 5891 5891 5891 5891 5891
5899 5898 5897 5896 5894 5891 5889 5888 5887 5886 5885 5885 5885 5884 5884 5884 5883 5882 5881 5882 5883 5884 5885 5886 5887 5888 5889 5890 5890 5891 5891 5892 5893 5893 5893 5893 5893 5893 5893 5892 5892 5891 5891 5891 5891 5890 5890 5891 5891
5896 5895 5894 5893 5891 5888 5887 5886 5885 5883 5883 5882 5882 5881 5880 5881 5880 5879 5879 5880 5880 5881 5883 5884 5885 5886 5887 5888 5889 5889 5890 5891 5891 5892 5892 5892 5892 5892 5891 5891 5890 5890 5890 5890 5889 5889 5889 5890 5890
5893 5893 5891 5890 5888 5886 5885 5884 5883 5882 5881 5880 5880 5878 5877 5878 5877 5877 5875 5877 5878 5879 5881 5882 5883 5884 5885 5886 5887 5887 5888 5889 5889 5890 5890 5890 5890 5890 5890 5889 5889 5888 5888 5888 5888 5888 5888 5888 5888
5890 5890 5888 5887 5885 5883 5882 5881 5880 5879 5878 5877 5877 5876 5874 5874 5874 5875 5873 5874 5875 5877 5878 5879 5880 5882 5883 5884 5885 5885 5886 5887 5888 5888 5889 5889 5888 5888 5888 5887 5887 5887 5886 5886 5886 5886 5886 5886 5886
5886 5886 5885 5884 5882 5881 5880 5878 5877 5876 5875 5874 5874 5872 5871 5871 5871 5872 5871 5870 5872 5873 5874 5876 5878 5879 5880 5881 5882 5883 5884 5885 5886 5886 5887 5886 5886 5886 5886 5886 5886 5885 5885 5885 5885 5885 5885 5885 5885
5883 5883 5882 5881 5880 5878 5877 5876 5874 5873 5872 5871 5870 5869 5868 5867 5867 5867 5866 5867 5869 5870 5871 5872 5874 5876 5878 5879 5880 5881 5882 5883 5884 5884 5884 5884 5884 5884 5884 5884 5884 5884 5884 5883 5883 5883 5883 5883 5883
5880 5879 5879 5878 5877 5876 5875 5874 5872 5870 5868 5867 5865 5863 5863 5863 5862 5862 5862 5863 5864 5865 5867 5869 5871 5873 5874 5876 5877 5879 5880 5881 5882 5882 5882 5882 5882 5882 5883 5883 5883 5882 5882 5882 5882 5881 5881 5881 5881
5876 5875 5875 5874 5874 5873 5872 5871 5869 5867 5865 5863 5861 5859 5859 5858 5857 5855 5856 5857 5858 5861 5863 5866 5868 5870 5871 5873 5875 5876 5878 5879 5879 5880 5880 5881 5881 5881 5881 5881 5881 5881 5881 5881 5880 5880 5880 5879 5879
5872 5872 5871 5871 5870 5870 5869 5868 5866 5863 5861 5859 5857 5855 5855 5853 5852 5850 5851 5850 5853 5856 5859 5862 5864 5867 5868 5870 5873 5874 5875 5876 5877 5878 5879 5879 5879 5879 5880 5880 5880 5880 5880 5880 5879 5879 5879 5878 5878
5869 5870 5869 5869 5868 5867 5866 5865 5864 5860 5858 5856 5854 5852 5851 5849 5847 5846 5847 5849 5850 5853 5856 5858 5860 5863 5866 5868 5870 5872 5873 5874 5875 5876 5877 5877 5878 5878 5879 5879 5879 5879 5879 5878 5878 5878 5877 5877 5877
5867 5867 5867 5867 5866 5865 5865 5863 5862 5857 5856 5853 5851 5849 5848 5847 5843 5842 5842 5843 5846 5848 5851 5854 5857 5860 5864 5866 5868 5869 5871 5872 5874 5874 5875 5876 5877 5877 5878 5878 5878 5878 5878 5877 5877 5877 5877 5876 5876
5864 5864 5864 5865 5863 5862 5861 5860 5859 5856 5854 5851 5849 5847 5845 5843 5841 5840 5840 5840 5841 5843 5846 5850 5855 5858 5861 5863 5865 5866 5868 5870 5872 5873 5874 5875 5875 5876 5876 5877 5877 5877 5877 5876 5876 5876 5875 5875 5874
5861 5861 5861 5861 5860 5859 5858 5857 5856 5854 5852 5850 5847 5844 5842 5839 5838 5837 5837 5838 5839 5841 5843 5848 5851 5855 5858 5860 5862 5864 5866 5868 5870 5872 5873 5874 5874 5875 5875 5876 5876 5876 5876 5875 5875 5875 5874 5874 5873
5857 5857 5857 5857 5857 5856 5855 5854 5853 5852 5850 5848 5845 5842 5839 5837 5835 5834 5834 5835 5835 5838 5841 5845 5848 5852 5855 5858 5860 5862 5864 5867 5869 5870 5872 5873 5873 5874 5874 5875 5875 5875 5875 5875 5874 5874 5874 5873 5872
5854 5854 5854 5854 5854 5853 5852 5851 5850 5849 5847 5845 5843 5840 5837 5834 5833 5832 5832 5832 5832 5836 5839 5843 5846 5850 5853 5856 5858 5860 5863 5865 5867 5869 5870 5871 5872 5873 5874 5874 5874 5874 5874 5874 5874 5873 5873 5872 5872
5851 5852 5852 5852 5852 5851 5850 5849 5848 5847 5844 5842 5841 5838 5835 5832 5831 5830 5830 5830 5830 5834 5838 5842 5845 5848 5851 5853 5856 5859 5862 5864 5866 5868 5869 5870 5871 5872 5873 5874 5874 5874 5874 5874 5874 5873 5872 5872 5871
5847 5849 5849 5849 5849 5848 5848 5846 5846 5844 5842 5840 5838 5836 5833 5831 5830 5829 5829 5829 5830 5833 5837 5840 5843 5846 5849 5852 5855 5858 5860 5863 5865 5867 5869 5870 5871 5872 5873 5873 5873 5873 5873 5873 5873 5872 5871 5871 5870
5844 5845 5846 5846 5845 5845 5844 5843 5843 5842 5840 5838 5836 5833 5832 5830 5829 5828 5828 5828 5830 5833 5836 5839 5842 5845 5848 5851 5854 5857 5860 5862 5864 5866 5868 5869 5870 5871 5872 5872 5873 5873 5872 5872 5872 5871 5870 5869 5868
5840 5841 5842 5842 5842 5841 5841 5840 5839 5839 5837 5835 5834 5832 5830 5829 5828 5827 5827 5828 5830 5832 5835 5838 5841 5844 5847 5850 5853 5856 5859 5861 5863 5865 5867 5868 5869 5870 5871 5872 5872 5872 5871 5871 5871 5870 5869 5868 5867
5836 5837 5838 5837 5838 5838 5837 5836 5836 5835 5834 5833 5831 5830 5828 5827 5826 5826 5827 5829 5830 5832 5835 5838 5841 5844 5846 5849 5852 5855 5858 5860 5862 5864 5865 5867 5868 5869 5870 5871 5871 5870 5870 5870 5869 5868 5867 5866 5865
5832 5833 5834 5834 5834 5834 5833 5832 5834 5833 5831 5830 5828 5827 5827 5826 5826 5826 5827 5829 5831 5832 5835 5838 5840 5843 5846 5849 5852 5854 5857 5859 5861 5862 5864 5865 5867 5868 5868 5869 5869 5869 5869 5868 5867 5866 5865 5864 5863
5827 5828 5830 5830 5830 5830 5830 5830 5830 5830 5829 5827 5826 5824 5824 5825 5826 5826 5827 5829 5831 5833 5835 5837 5840 5843 5845 5848 5851 5853 5855 5857 5859 5861 5862 5864 5865 5866 5867 5867 5867 5867 5867 5866 5865 5864 5863 5862 5860
5823 5824 5825 5826 5826 5826 5827 5826 5827 5827 5826 5825 5824 5824 5823 5824 5825 5826 5827 5829 5831 5832 5834 5837 5839 5842 5845 5847 5849 5852 5854 5856 5858 5859 5861 5862 5863 5864 5864 5865 5865 5864 5864 5863 5862 5861 5860 5859 5857
5818 5819 5819 5820 5822 5823 5823 5826 5825 5824 5823 5823 5823 5823 5823 5823 5824 5825 5826 5828 5830 5832 5834 5837 5839 5841 5843 5846 5848 5850 5852 5854 5856 5857 5859 5860 5861 5862 5862 5862 5862 5862 5861 5860 5859 5858 5857 5855 5854
5813 5814 5815 5817 5817 5819 5820 5824 5822 5821 5821 5821 5822 5822 5822 5822 5823 5825 5826 5827 5829 5832 5834 5836 5838 5840 5842 5844 5846 5848 5850 5852 5854 5855 5857 5858 5858 5859 5859 5859 5859 5858 5858 5857 5856 5855 5853 5852 5850